Flag for Germany Weather past 2 weeks in Geldern, North Rhine-Westphalia, Germany

Now
81 °F

Sunny.


Feels Like: 80 °F
Forecast: 64 / 89 °F
Wind: 6 mph from North

Location: Niederrhein

Current Time: Jun 30, 2015 at 3:45:40 PM

Latest Report: Jun 30, 2015 at 2:50 PM


Visibility: 10 mi

Pressure: 30.15 "Hg

Humidity: 39%

Dew point: 54 °F

Location of GeldernLocation

Historic Weather in Geldern — Graph

°F

Geldern temperature yesterday

Maximum temperature yesterday: 77 °F (at 1:50 PM)
Minimum temperature yesterday: 61 °F (at 5:20 AM)
Average temperature yesterday: 71 °F

Past Weeks' High & Low Weather Summary

 TemperatureHumidityPressure
High81 °F (Jun 30, 1:50 PM)100% (Jun 18, 5:50 AM)30.30 "Hg (Jun 18, 5:50 AM)
Low43 °F (Jun 17, 4:50 AM)35% (Jun 15, 7:20 PM)29.68 "Hg (Jun 22, 7:50 PM)
Average63 °F68%30.08 "Hg
* Reported Jun 15 2:20 PM — Jun 30 2:20 PM, Geldern, Weather by CustomWeather, © 2015

Note: Actual official high and low records may vary slightly from our data, if they occured in-between our weather recording intervals... More about our weather records

Advertising

Geldern weather history for previous 24 hours

 ConditionsComfort  
Time TempWeatherWind HumidityBarometerVisibility
2:20 PM
Tue, Jun 30
81 °FSunny.6 mph39%30.15 "Hg10 mi
1:50 PM81 °FSunny.6 mph42%30.15 "Hg10 mi
1:20 PM79 °FPassing clouds.7 mph42%30.18 "HgN/A
12:50 PM79 °FPassing clouds.6 mph42%30.18 "HgN/A
12:20 PM77 °FSunny.6 mph47%30.18 "Hg10 mi
11:50 AM77 °FPassing clouds.6 mph47%30.18 "HgN/A
11:20 AM75 °FSunny.7 mph50%30.18 "Hg10 mi
10:50 AM73 °FSunny.6 mph57%30.18 "Hg10 mi
9:50 AM72 °FPassing clouds.6 mph61%30.18 "HgN/A
9:20 AM70 °FPassing clouds.5 mph64%30.21 "HgN/A
8:50 AM70 °FPassing clouds.5 mph64%30.21 "HgN/A
8:20 AM66 °FSunny.3 mph73%30.21 "Hg10 mi
7:50 AM64 °FSunny.3 mph78%30.18 "Hg10 mi
7:20 AM61 °FClear.No wind83%30.18 "Hg10 mi
6:50 AM61 °FClear.No wind83%30.18 "Hg10 mi
6:20 AM57 °FClear.No wind88%30.18 "Hg10 mi
5:50 AM57 °FClear.No wind88%30.18 "Hg10 mi
4:50 AM57 °FClear.No wind82%30.18 "Hg10 mi
11:50 PM
Mon, Jun 29
64 °FSunny.No wind68%30.21 "Hg10 mi
11:20 PM66 °FSunny.2 mph64%30.21 "Hg10 mi
10:50 PM68 °FSunny.1 mph60%30.21 "Hg10 mi
10:20 PM68 °FSunny.No wind64%30.21 "Hg10 mi
9:50 PM70 °FSunny.3 mph60%30.18 "Hg10 mi
9:20 PM72 °FSunny.3 mph57%30.18 "Hg10 mi
8:50 PM73 °FSunny.3 mph50%30.18 "Hg10 mi
8:20 PM73 °FSunny.2 mph47%30.18 "Hg10 mi
7:50 PM75 °FPassing clouds.5 mph39%30.18 "HgN/A
7:20 PM75 °FPassing clouds.6 mph41%30.15 "HgN/A
6:50 PM77 °FPassing clouds.7 mph39%30.15 "HgN/A
6:20 PM77 °FPassing clouds.7 mph42%30.15 "HgN/A
5:50 PM77 °FPassing clouds.7 mph42%30.15 "HgN/A
5:20 PM77 °FPassing clouds.8 mph44%30.15 "HgN/A
4:50 PM77 °FPassing clouds.9 mph42%30.15 "HgN/A
4:20 PM77 °FPassing clouds.10 mph42%30.15 "HgN/A
3:50 PM77 °FPassing clouds.7 mph44%30.15 "HgN/A
3:20 PM77 °FPassing clouds.8 mph44%30.15 "HgN/A
Weather by CustomWeather, © 2015

See weather overviewHow to use our weather pages